Location: Unspecified
(42.3650°N, 71.1030°W)
Time: 02:32:10
(UTC+00:00)

Explorer 11/Cluster Stage 4 - Pass Details

Date: 21 June 2024
Orbit: 465 x 1215 km, 28.8° (Epoch: 17 July)

Event Time Altitude Azimuth Distance (km) Brightness Sun altitude
Rises 03:43:04 0° 248° (WSW) 4,062 10.2 -22.6°
Reaches altitude 10° 03:46:33 10° 237° (WSW) 3,028 9.4 -22.8°
Enters shadow 03:48:51 18° 224° (SW) 2,438 8.8 -22.9°
Maximum altitude 03:52:30 26° 185° (S) 1,923 - -23.0°
Drops below altitude 10° 03:57:46 10° 131° (SE) 2,642 - -23.2°
Sets 04:00:35 0° 118° (ESE) 3,454 - -23.4°
